This is the latest recevied weather packets stored in our database for station/object IZ1GCT. If no packets are shown the sender has not sent any weather packets the latest 10 day(s).
| Time | Temp. | Humidity | Pressure | Rain* | Wind** | Luminosity | Snow |
|---|---|---|---|---|---|---|---|
| 1778157043 | 20.56° C | 44% | 1015.2 hPa | 0 mm | - | - | - |
| 1778156743 | 20° C | 47% | 1015.3 hPa | 0 mm | - | - | - |
| 1778156442 | 20° C | 45% | 1015.3 hPa | 0 mm | - | - | - |
| 1778156143 | 19.44° C | 49% | 1015.3 hPa | 0 mm | - | - | - |
| 1778155842 | 19.44° C | 46% | 1015.3 hPa | 0 mm | - | - | - |
| 1778155542 | 19.44° C | 49% | 1015.3 hPa | 0 mm | - | - | - |
| 1778155243 | 20° C | 47% | 1015.4 hPa | 0 mm | - | - | - |
| 1778154943 | 20.56° C | 50% | 1015.4 hPa | 0 mm | - | - | - |
| 1778154642 | 19.44° C | 48% | 1015.5 hPa | 0 mm | - | - | - |
| 1778154342 | 19.44° C | 47% | 1015.5 hPa | 0 mm | - | - | - |
| 1778154043 | 20° C | 43% | 1015.4 hPa | 0 mm | - | - | - |
| 1778153743 | 20° C | 45% | 1015.5 hPa | 0 mm | - | - | - |
| 1778153442 | 20° C | 47% | 1015.4 hPa | 0 mm | - | - | - |
| 1778153143 | 20° C | 42% | 1015.6 hPa | 0 mm | - | - | - |
| 1778152842 | 19.44° C | 46% | 1015.7 hPa | 0 mm | - | - | - |
| 1778152541 | 20° C | 44% | 1015.7 hPa | 0 mm | - | - | - |
| 1778152243 | 19.44° C | 44% | 1015.6 hPa | 0 mm | - | - | - |
| 1778151942 | 20° C | 41% | 1015.8 hPa | 0 mm | - | - | - |
| 1778151643 | 20° C | 43% | 1015.8 hPa | 0 mm | - | - | - |
| 1778151343 | 19.44° C | 41% | 1015.8 hPa | 0 mm | - | - | - |
| 1778151042 | 19.44° C | 41% | 1015.6 hPa | 0 mm | - | - | - |
| 1778150742 | 18.89° C | 41% | 1015.7 hPa | 0 mm | - | - | - |
| 1778150442 | 18.89° C | 43% | 1015.8 hPa | 0 mm | - | - | - |
| 1778150142 | 18.89° C | 42% | 1015.8 hPa | 0 mm | - | - | - |
| 1778149842 | 19.44° C | 43% | 1015.8 hPa | 0 mm | - | - | - |
* Rain latest hour (hover to see other rain measurements)
** Current wind speed in m/s (hover to see current wind gust speed)